Location: Hradec Kralove
(50.2170°N, 15.8330°E)
Time: 04:46:23
(UTC+01:00)

N. Korean satellite - Pass Details

Date: 04 December 2022
Orbit: 407 x 441 km, 97.3° (Epoch: 05 February)

Event Time Altitude Azimuth Distance (km) Brightness Sun altitude
Rises 16:28:58 0° 174° (S) 2,454 10.5 -5.4°
Reaches altitude 10° 16:31:00 10° 178° (S) 1,596 9.6 -5.7°
Maximum altitude 16:34:24 61° 259° (W) 533 7.1 -6.2°
Drops below altitude 10° 16:37:52 10° 340° (NNW) 1,629 9.2 -6.6°
Sets 16:39:59 0° 345° (NNW) 2,523 10.1 -6.9°
